Tracking 27420 objects as of 10-Jun-2023
HD Live streaming from Space Station
objects crossing your sky now

ONEWEB-0633

Track ONEWEB-0633 now!
10-day predictions
ONEWEB-0633 is classified as:


NORAD ID: 56074
Int'l Code: 2023-043AE
Perigee: 926.1 km
Apogee: 949.7 km
Inclination: 87.8 °
Period: 103.6 minutes
Semi major axis: 7308 km
RCS: Unknown
Launch date: March 26, 2023
Source: United Kingdom (UK)
Launch site: SRIHARIKOTA (SRI)
Your satellite tracking list
Your tracking list is empty




NASA's NSSDC Master Catalog

Two Line Element Set (TLE):
1 56074U 23043AE  23161.58334491  .00000016  00000-0  00000+0 0  9990
2 56074  87.7792 119.1817 0016176  24.0554 166.7091 13.89394875 12205
Source of the keplerian elements: AFSPC